Temp
-5 -5 -5 -5 -5 -5 -5 -5 -5 -5 -5 -5 -5 -5 -5 -5 -4 -4 -4 -4 -4 -5 -4 -4 -4 -4 -5 -4 -5 -5 -5 -5 -5 -5 -5 -5 -5 -5 -5 -5 -5 -5
-5 -5 -5 -5 -5 -5 -5 -5 -5 -5 -5 -5 -5 -5 -5 -5 -5 -4 -4 -4 -4 -4 -4 -4 -4 -4 -5 -4 -5 -5 -5 -5 -5 -5 -5 -4 -5 -5 -5 -5 -5 -5
-5 -5 -5 -5 -5 -5 -5 -5 -5 -5 -5 -5 -5 -5 -5 -5 -4 -4 -4 -4 -4 -4 -4 -4 -4 -4 -5 -4 -5 -5 -5 -5 -5 -5 -5 -5 -5 -5 -5 -5 -5 -5
-5 -5 -5 -5 -5 -5 -5 -5 -5 -5 -5 -5 -5 -5 -5 -5 -4 -4 -4 -4 -4 -4 -4 -4 -4 -4 -4 -4 -4 -5 -5 -5 -5 -5 -5 -5 -5 -5 -5 -5 -5 -5
-5 -5 -5 -5 -5 -5 -5 -5 -5 -5 -5 -5 -5 -5 -5 -5 -5 -4 -4 -4 -4 -4 -4 -4 -4 -4 -4 -4 -4 -4 -5 -5 -5 -5 -5 -5 -5 -5 -5 -5 -5 -5
-5 -5 -5 -5 -5 -5 -5 -5 -5 -5 -5 -5 -5 -5 -5 -5 -5 -4 -4 -4 -4 -4 -4 -4 -4 -4 -4 -4 -4 -4 -4 -5 -5 -5 -5 -5 -5 -5 -5 -5 -5 -5
-5 -5 -5 -5 -5 -6 -6 -5 -5 -5 -5 -5 -5 -5 -5 -5 -5 -4 -4 -4 -4 -4 -4 -4 -4 -4 -4 -4 -4 -4 -4 -4 -5 -5 -5 -5 -5 -5 -5 -5 -5 -5
-6 -6 -6 -6 -6 -6 -6 -6 -6 -5 -5 -5 -5 -5 -5 -5 -4 -4 -4 -4 -4 -4 -4 -4 -4 -4 -4 -4 -4 -4 -4 -4 -4 -5 -5 -5 -5 -5 -5 -5 -5 -5
-6 -6 -6 -6 -6 -6 -6 -6 -6 -5 -5 -5 -5 -5 -5 -5 -4 -4 -4 -4 -4 -4 -4 -4 -3 -3 -4 -4 -4 -4 -4 -4 -4 -5 -5 -5 -5 -5 -5 -5 -5 -5
-6 -6 -6 -5 -5 -6 -6 -6 -6 -6 -6 -5 -5 -5 -5 -5 -5 -4 -4 -4 -4 -4 -4 -4 -4 -3 -3 -4 -4 -4 -4 -4 -5 -5 -5 -5 -5 -5 -5 -5 -5 -5
-5 -6 -6 -5 -5 -5 -6 -6 -6 -6 -6 -6 -5 -5 -5 -5 -5 -5 -5 -4 -4 -4 -4 -4 -4 -4 -4 -4 -4 -4 -4 -4 -4 -5 -5 -5 -5 -5 -5 -5 -5 -5
-6 -6 -6 -5 -5 -5 -6 -6 -5 -5 -6 -6 -5 -5 -5 -5 -5 -5 -5 -5 -4 -4 -4 -4 -4 -4 -4 -4 -4 -4 -4 -4 -4 -4 -5 -5 -5 -5 -5 -5 -5 -5
-6 -6 -5 -5 -5 -5 -5 -6 -5 -5 -6 -6 -6 -6 -5 -5 -5 -5 -5 -5 -5 -5 -4 -4 -4 -4 -4 -4 -4 -4 -4 -4 -4 -4 -4 -4 -5 -5 -5 -5 -5 -5
-5 -5 -5 -5 -5 -5 -5 -6 -5 -6 -6 -6 -5 -6 -6 -6 -5 -5 -5 -5 -5 -5 -5 -5 -4 -4 -4 -4 -4 -4 -4 -4 -4 -4 -4 -4 -4 -5 -5 -5 -5 -5
-5 -4 -5 -5 -5 -5 -5 -5 -5 -6 -6 -6 -5 -5 -6 -6 -6 -6 -5 -5 -5 -5 -5 -5 -5 -5 -5 -4 -4 -4 -4 -4 -4 -4 -4 -4 -4 -5 -5 -5 -5 -5
-5 -5 -5 -5 -5 -5 -5 -5 -5 -6 -6 -6 -6 -6 -6 -6 -6 -6 -6 -5 -5 -5 -5 -5 -5 -5 -5 -5 -4 -4 -4 -4 -4 -4 -4 -4 -4 -5 -5 -5 -5 -5
-5 -5 -6 -6 -6 -6 -6 -6 -6 -6 -6 -6 -6 -6 -6 -6 -6 -6 -6 -6 -6 -5 -5 -5 -5 -5 -5 -5 -5 -4 -4 -4 -4 -4 -4 -4 -4 -5 -5 -5 -5 -5
-6 -6 -6 -6 -6 -6 -6 -6 -6 -6 -6 -6 -6 -6 -6 -6 -6 -6 -6 -6 -6 -6 -5 -5 -5 -5 -5 -5 -5 -5 -4 -4 -4 -4 -4 -4 -4 -5 -5 -5 -5 -5
-7 -7 -6 -6 -7 -7 -7 -7 -7 -7 -7 -6 -7 -7 -6 -6 -6 -6 -6 -6 -6 -6 -6 -5 -5 -5 -5 -5 -5 -5 -5 -4 -4 -4 -4 -4 -4 -5 -5 -5 -5 -5
-7 -6 -6 -7 -7 -7 -7 -7 -7 -7 -7 -7 -7 -7 -6 -6 -6 -6 -5 -6 -6 -6 -6 -6 -6 -6 -6 -6 -6 -5 -5 -5 -4 -4 -5 -5 -5 -5 -5 -5 -5 -5
-7 -6 -6 -7 -7 -7 -7 -7 -7 -7 -7 -7 -7 -6 -6 -6 -6 -6 -6 -6 -6 -6 -6 -6 -6 -6 -6 -6 -6 -6 -6 -5 -5 -5 -5 -5 -5 -5 -5 -5 -5 -5
-7 -6 -6 -6 -7 -7 -7 -7 -8 -7 -7 -7 -7 -7 -7 -7 -6 -6 -6 -6 -6 -5 -5 -6 -6 -6 -6 -6 -6 -6 -6 -5 -5 -5 -5 -5 -5 -5 -5 -5 -5 -5
-7 -6 -6 -7 -7 -7 -7 -7 -7 -7 -7 -7 -7 -7 -7 -7 -7 -6 -6 -6 -6 -6 -5 -6 -6 -6 -6 -6 -6 -6 -6 -6 -5 -5 -5 -5 -6 -6 -6 -5 -5 -5
-7 -7 -7 -7 -7 -7 -7 -7 -7 -8 -7 -7 -7 -7 -7 -7 -7 -7 -7 -7 -6 -6 -5 -6 -6 -6 -6 -6 -6 -6 -6 -6 -6 -5 -5 -5 -6 -6 -6 -6 -6 -6
-7 -7 -8 -7 -7 -7 -7 -7 -7 -8 -8 -8 -8 -7 -7 -7 -7 -7 -7 -7 -7 -6 -6 -6 -6 -6 -6 -6 -6 -6 -6 -6 -6 -6 -5 -5 -6 -6 -6 -6 -6 -6
-8 -8 -8 -7 -7 -7 -7 -7 -7 -8 -8 -8 -8 -7 -7 -7 -7 -7 -7 -7 -7 -7 -6 -6 -6 -6 -6 -6 -5 -5 -5 -5 -5 -5 -5 -6 -6 -6 -6 -6 -6 -6
Height
5943 5944 5945 5946 5947 5949 5950 5951 5952 5953 5954 5955 5957 5958 5959 5959 5960 5962 5962 5963 5964 5965 5965 5966 5967 5967 5968 5968 5968 5968 5969 5969 5970 5971 5971 5972 5973 5974 5974 5975 5976 5977
5943 5944 5945 5946 5947 5949 5950 5951 5952 5954 5955 5955 5956 5957 5958 5959 5960 5961 5962 5963 5964 5965 5965 5966 5966 5967 5967 5968 5968 5968 5969 5970 5970 5971 5971 5972 5973 5973 5974 5975 5976 5977
5943 5944 5945 5946 5947 5949 5951 5952 5953 5954 5955 5956 5956 5957 5958 5959 5960 5961 5962 5963 5964 5965 5965 5966 5966 5967 5967 5968 5969 5969 5969 5970 5970 5971 5972 5972 5973 5973 5974 5975 5976 5977
5942 5943 5944 5945 5946 5948 5950 5952 5953 5954 5955 5956 5956 5957 5959 5960 5960 5961 5962 5963 5964 5965 5966 5966 5967 5967 5967 5968 5969 5969 5969 5970 5970 5971 5972 5972 5973 5974 5975 5975 5976 5977
5941 5942 5943 5944 5945 5947 5948 5950 5951 5953 5954 5955 5956 5957 5959 5960 5960 5961 5962 5963 5964 5965 5966 5966 5967 5967 5968 5968 5968 5969 5970 5970 5970 5971 5972 5972 5973 5974 5975 5975 5976 5976
5939 5941 5942 5943 5945 5946 5947 5948 5950 5951 5953 5954 5955 5957 5958 5959 5960 5961 5962 5963 5964 5965 5966 5966 5967 5967 5967 5968 5968 5969 5970 5970 5970 5971 5971 5972 5973 5974 5975 5975 5976 5976
5938 5939 5940 5941 5943 5945 5946 5947 5949 5950 5951 5953 5954 5955 5957 5959 5960 5961 5962 5963 5964 5965 5966 5966 5966 5967 5967 5967 5968 5969 5969 5970 5970 5971 5971 5972 5973 5973 5974 5975 5976 5976
5936 5938 5940 5941 5942 5944 5945 5947 5948 5949 5950 5952 5953 5954 5955 5957 5959 5960 5961 5962 5963 5964 5965 5966 5966 5966 5967 5967 5968 5968 5969 5970 5970 5971 5971 5972 5973 5973 5974 5975 5975 5976
5934 5936 5939 5940 5940 5942 5943 5945 5947 5948 5949 5950 5952 5953 5954 5956 5957 5959 5960 5961 5962 5963 5964 5965 5965 5966 5966 5967 5967 5968 5968 5969 5970 5971 5971 5972 5972 5973 5974 5974 5975 5976
5931 5934 5936 5938 5939 5940 5941 5943 5945 5946 5948 5949 5950 5952 5953 5954 5956 5957 5959 5960 5961 5962 5963 5963 5964 5965 5966 5966 5967 5967 5967 5968 5969 5970 5970 5971 5972 5972 5973 5974 5974 5975
5930 5932 5934 5936 5937 5938 5939 5941 5943 5944 5946 5947 5948 5950 5951 5952 5954 5955 5957 5958 5959 5960 5961 5962 5963 5964 5965 5965 5966 5967 5967 5967 5968 5969 5969 5970 5971 5972 5972 5973 5974 5975
5929 5930 5932 5933 5934 5936 5937 5939 5941 5942 5944 5945 5946 5947 5949 5950 5951 5953 5954 5955 5957 5958 5959 5960 5961 5962 5963 5964 5965 5966 5966 5967 5967 5968 5968 5969 5970 5970 5971 5972 5973 5974
5927 5928 5929 5930 5931 5933 5935 5936 5938 5940 5941 5943 5944 5945 5946 5947 5949 5950 5952 5953 5954 5956 5957 5958 5960 5961 5962 5963 5964 5964 5965 5966 5966 5967 5968 5968 5969 5969 5970 5971 5971 5972
5924 5924 5926 5927 5929 5931 5932 5934 5935 5937 5939 5940 5941 5942 5943 5944 5946 5947 5949 5950 5952 5953 5955 5956 5957 5959 5960 5961 5962 5963 5963 5964 5965 5966 5967 5967 5968 5968 5969 5969 5970 5971
5921 5921 5922 5924 5926 5927 5929 5930 5931 5934 5936 5938 5938 5939 5940 5942 5943 5945 5946 5948 5949 5950 5952 5954 5955 5956 5957 5958 5959 5960 5962 5963 5963 5964 5965 5966 5967 5967 5967 5968 5968 5969
5918 5919 5920 5922 5923 5924 5926 5928 5929 5932 5935 5936 5937 5938 5938 5940 5941 5943 5944 5945 5946 5948 5949 5951 5952 5954 5955 5956 5957 5958 5959 5961 5962 5963 5964 5964 5965 5966 5966 5967 5967 5968
5914 5917 5919 5920 5921 5922 5924 5926 5927 5930 5931 5933 5934 5936 5937 5938 5940 5942 5943 5944 5945 5946 5947 5948 5950 5951 5952 5953 5954 5956 5957 5958 5959 5961 5962 5963 5964 5964 5965 5965 5966 5967
5913 5916 5917 5917 5918 5920 5924 5926 5927 5929 5929 5930 5933 5935 5935 5936 5938 5940 5942 5944 5945 5945 5946 5947 5948 5949 5950 5951 5952 5953 5954 5955 5957 5958 5959 5961 5962 5962 5963 5964 5965 5965
5912 5914 5914 5915 5916 5920 5925 5926 5926 5927 5927 5928 5931 5933 5934 5935 5935 5937 5940 5942 5944 5945 5946 5947 5947 5947 5948 5949 5949 5950 5951 5952 5954 5956 5957 5958 5959 5960 5961 5962 5963 5963
5910 5911 5911 5913 5915 5918 5921 5922 5922 5923 5924 5925 5928 5931 5932 5932 5932 5934 5936 5938 5940 5941 5943 5944 5945 5946 5946 5947 5947 5947 5948 5949 5951 5953 5954 5956 5957 5958 5959 5959 5960 5961
5906 5908 5909 5911 5913 5915 5917 5918 5920 5921 5923 5925 5926 5927 5928 5928 5928 5930 5931 5933 5934 5936 5937 5940 5942 5943 5944 5945 5945 5944 5944 5946 5948 5950 5952 5953 5954 5955 5956 5957 5957 5958
5903 5905 5906 5908 5910 5912 5913 5916 5918 5919 5921 5922 5923 5924 5924 5924 5925 5926 5927 5929 5931 5933 5936 5938 5939 5940 5941 5942 5943 5942 5942 5943 5945 5947 5949 5950 5952 5952 5953 5954 5954 5955
5899 5901 5902 5904 5906 5908 5909 5911 5913 5915 5916 5918 5919 5920 5921 5921 5923 5924 5925 5926 5928 5931 5933 5935 5937 5938 5938 5940 5940 5940 5940 5941 5942 5943 5945 5947 5948 5949 5950 5950 5951 5952
5894 5895 5898 5901 5902 5902 5903 5905 5908 5910 5912 5913 5915 5916 5918 5919 5921 5922 5923 5924 5925 5927 5929 5931 5933 5933 5934 5935 5936 5936 5936 5937 5938 5939 5941 5943 5944 5945 5946 5946 5947 5948
5888 5890 5894 5896 5898 5899 5899 5901 5904 5906 5907 5909 5911 5913 5914 5915 5916 5917 5919 5920 5922 5923 5925 5926 5928 5929 5929 5930 5931 5931 5932 5933 5934 5935 5937 5939 5940 5941 5942 5943 5943 5944
5883 5885 5888 5891 5893 5895 5897 5898 5901 5902 5903 5905 5907 5909 5910 5910 5911 5912 5913 5915 5917 5919 5920 5921 5922 5923 5922 5923 5924 5926 5927 5929 5931 5932 5933 5935 5936 5937 5938 5940 5940 5941
Wind_Speed
14 13 14 14 14 13 12 13 13 12 11 10 9 8 8 8 8 7 6 6 4 4 4 3 3 3 2 2 3 4 5 5 5 5 5 6 6 6 7 8 9 8
14 14 14 14 14 13 12 13 13 13 12 11 10 10 9 9 8 8 7 6 5 5 5 4 4 3 3 3 3 4 5 5 5 6 6 6 6 6 6 7 8 8
15 14 14 14 13 12 12 12 13 13 12 12 11 11 10 9 9 8 8 7 6 5 5 5 5 5 5 4 5 5 5 6 6 6 7 7 7 6 6 7 8 8
17 15 15 14 12 11 11 12 13 13 13 12 12 11 11 10 9 9 8 7 7 6 6 6 6 6 6 5 5 6 6 6 6 6 6 6 7 7 6 6 7 8
19 17 15 14 12 11 11 12 13 14 14 13 13 12 11 10 10 9 8 8 8 7 7 7 7 7 7 6 6 6 6 6 6 6 5 5 6 6 7 6 6 7
21 19 17 15 13 12 11 12 13 14 15 15 14 13 12 12 11 10 9 9 9 8 8 8 8 8 8 8 7 7 7 6 6 6 6 6 6 6 6 6 6 6
21 20 19 16 14 13 12 12 12 14 15 16 16 15 14 13 13 11 10 10 10 9 9 9 8 8 8 8 8 8 7 7 7 7 7 7 7 7 6 6 7 6
19 20 20 18 15 13 12 12 12 13 14 16 17 16 15 14 14 13 12 11 11 10 10 10 10 9 9 9 9 9 8 8 8 7 7 7 7 7 7 7 7 7
19 19 20 20 18 16 14 13 13 13 13 15 16 17 17 16 15 14 13 12 12 11 11 11 11 10 10 10 10 10 9 9 8 8 7 8 8 8 8 8 8 8
20 19 21 21 20 18 16 15 14 14 14 14 15 17 17 17 16 15 14 14 13 13 12 12 11 11 11 11 11 11 11 10 9 9 8 8 8 9 9 9 8 8
20 20 21 21 20 20 18 17 16 15 15 15 15 16 17 17 17 16 16 16 15 15 14 13 12 12 11 11 12 12 12 11 11 10 9 9 9 10 10 10 9 9
21 20 20 20 21 21 20 19 18 17 17 17 16 16 16 17 17 17 17 17 17 17 15 14 13 13 12 12 12 13 13 12 12 11 11 11 11 11 11 11 10 10
20 19 19 20 21 22 22 21 20 19 18 18 18 17 16 16 17 18 18 19 19 18 17 15 14 13 13 13 13 13 14 14 13 13 13 12 12 12 12 12 12 11
20 20 21 22 22 23 22 22 22 21 20 20 20 18 17 17 17 18 18 19 19 19 18 17 15 14 14 13 13 14 14 15 15 14 14 13 13 12 12 13 13 12
21 22 23 23 24 25 25 24 24 23 22 22 21 19 18 18 17 18 18 18 19 19 18 18 17 16 15 15 15 15 15 15 15 15 15 14 14 13 13 13 14 13
21 22 22 22 23 25 24 24 23 22 22 23 22 20 20 18 17 17 18 18 18 18 19 19 18 17 17 17 16 15 15 15 15 16 16 15 15 14 14 14 14 14
21 22 22 21 22 23 22 22 23 22 23 24 23 22 21 20 18 18 18 18 18 18 19 19 19 19 18 18 18 17 16 15 15 15 16 16 16 15 15 15 15 15
20 20 22 23 24 24 22 23 23 23 24 25 24 24 24 21 20 19 19 19 19 19 19 19 19 19 19 20 20 20 18 16 15 14 15 15 16 16 16 16 16 15
19 19 21 24 26 24 22 23 25 24 24 24 25 26 25 22 21 21 20 20 20 20 20 19 19 20 20 21 22 22 22 19 17 15 15 15 16 17 17 17 17 16
24 24 24 24 23 22 21 24 27 26 23 22 25 27 27 24 23 23 22 21 22 22 21 21 21 21 21 22 23 24 25 23 20 18 16 15 15 16 17 18 18 17
29 29 28 26 24 23 22 24 26 26 23 22 24 27 27 25 24 24 24 24 24 24 23 22 22 23 22 22 23 25 27 26 24 21 19 17 16 16 17 18 18 18
33 32 32 30 27 26 25 24 24 24 24 25 25 25 25 25 25 26 26 25 25 25 24 23 23 24 24 24 24 26 28 28 26 24 23 21 19 18 18 18 19 19
36 35 34 33 31 30 29 27 25 24 24 24 25 25 25 25 26 26 26 26 27 27 25 23 24 25 26 25 26 27 28 28 27 27 26 25 23 22 21 21 20 20
41 39 36 34 33 33 32 29 26 25 25 24 24 24 24 24 25 25 26 27 28 29 27 26 26 26 27 27 28 29 29 29 29 29 28 27 26 26 26 25 25 24
45 43 38 35 35 35 34 31 28 26 25 24 24 25 25 24 25 26 26 27 29 30 31 30 29 28 28 29 30 31 32 31 31 31 29 28 28 29 29 29 29 28
49 47 44 41 40 38 36 33 31 30 29 27 26 26 27 27 27 27 27 27 28 31 33 33 32 32 32 33 33 34 34 34 33 32 31 30 30 31 31 31 31 31
Wind_Direction
220 224 231 237 237 228 218 212 210 208 205 203 201 197 191 188 190 193 191 191 195 203 203 201 197 184 188 196 165 163 168 161 164 165 166 166 157 164 168 159 160 163
220 225 232 239 242 239 228 218 214 212 208 205 205 205 201 196 193 194 197 196 201 214 216 217 216 205 206 206 187 179 171 164 168 166 170 173 162 163 169 165 171 172
222 226 234 241 244 244 237 228 220 217 214 210 211 213 210 206 200 198 202 204 207 217 224 228 225 217 217 211 198 192 178 168 174 171 173 174 163 165 172 170 177 181
222 226 234 240 242 242 240 235 228 222 219 217 218 221 220 217 212 206 207 211 215 220 226 230 231 226 224 217 203 197 185 178 179 173 173 173 165 169 175 171 178 187
221 224 232 239 238 234 232 233 230 225 222 221 223 228 228 226 223 216 213 217 223 227 227 231 234 232 227 219 208 201 193 187 183 175 177 178 170 174 176 171 181 192
220 219 226 234 236 232 228 229 229 226 222 220 223 229 233 234 234 227 219 219 226 231 231 232 233 234 230 221 213 205 199 194 190 184 183 181 178 182 181 178 186 194
222 220 221 227 232 233 232 232 231 228 225 221 220 224 230 236 239 236 229 224 227 232 234 233 233 232 231 225 218 211 203 199 199 193 188 184 184 187 187 189 194 196
223 225 226 226 229 233 235 236 236 234 231 226 222 222 226 233 240 242 237 229 227 231 233 235 234 232 232 228 222 216 209 204 202 199 195 191 191 192 191 195 200 201
217 222 228 228 227 230 233 237 239 238 237 233 228 225 225 228 235 241 242 236 231 231 232 234 235 234 233 232 227 220 215 210 207 205 204 199 198 199 197 198 202 205
216 219 225 228 229 230 232 235 239 239 239 238 234 231 230 230 232 235 240 240 235 232 231 232 234 234 235 235 231 225 218 214 211 210 210 209 207 205 203 203 205 207
224 223 225 228 230 232 233 233 237 238 240 240 238 235 234 234 234 234 236 239 237 234 232 231 231 232 235 236 234 229 223 218 216 214 213 213 213 211 209 209 209 211
225 224 225 228 231 234 234 234 236 237 238 239 239 239 237 236 236 235 234 235 236 236 234 232 231 231 234 237 236 233 228 222 220 218 216 215 216 214 213 213 213 214
223 224 226 228 229 233 235 236 237 237 236 236 235 237 238 237 237 237 236 235 234 235 235 235 233 231 234 238 238 236 232 227 224 223 221 220 218 217 215 215 216 217
224 225 227 228 228 231 234 236 238 237 236 235 232 232 234 236 236 237 237 237 235 234 235 236 236 233 234 236 238 239 236 231 227 226 225 225 223 221 219 217 218 218
225 225 227 228 228 228 229 233 236 237 237 238 234 232 232 233 234 235 237 238 238 235 234 235 236 236 235 236 236 238 239 236 232 229 227 227 227 227 225 222 221 221
230 229 231 234 234 234 232 233 236 238 241 243 242 241 238 236 235 234 235 236 237 237 235 234 235 236 237 238 238 239 240 239 236 233 230 229 230 230 230 229 228 226
238 238 239 240 242 242 240 239 238 237 239 240 242 245 245 243 243 240 239 239 237 237 235 234 234 236 237 239 241 242 242 241 239 236 233 230 231 232 233 233 233 232
248 249 247 245 247 246 244 243 241 242 244 245 245 246 245 243 245 244 244 245 244 242 239 236 234 236 238 239 241 243 244 242 239 237 234 231 230 232 233 235 236 235
250 250 247 249 253 253 249 246 244 244 247 247 248 249 247 244 243 243 244 246 247 248 248 245 241 239 239 239 241 242 243 242 241 238 236 232 230 231 233 235 236 237
253 250 248 250 256 256 248 243 244 245 244 243 245 248 248 245 241 242 244 244 243 245 247 248 248 246 243 242 243 244 244 242 241 239 238 236 234 232 233 235 236 238
258 256 256 257 258 256 249 245 247 248 244 242 246 247 247 245 241 240 241 239 238 239 240 243 247 248 247 245 246 247 247 244 242 240 240 241 241 239 238 237 238 239
262 260 260 260 260 258 256 255 256 253 242 237 243 248 249 250 247 245 243 241 240 242 242 242 246 249 249 247 247 249 249 248 245 243 243 244 245 245 244 243 243 242
260 259 257 258 259 259 259 259 261 260 250 239 239 245 249 253 254 253 250 246 246 247 244 241 245 249 250 250 249 249 251 251 249 246 244 244 244 246 247 247 247 246
258 257 257 257 258 259 259 259 259 259 257 251 245 243 246 251 252 253 253 249 246 245 241 236 238 244 248 250 250 250 250 251 251 249 246 244 244 244 245 245 246 246
259 260 259 257 256 256 256 258 257 254 253 253 251 245 243 243 242 243 246 246 243 240 237 234 235 238 242 245 247 248 248 248 249 249 248 247 246 245 244 245 246 247
260 261 260 258 257 256 255 255 255 252 249 251 251 248 244 241 239 238 240 241 240 239 238 237 236 236 238 239 240 243 246 247 248 248 249 250 248 246 246 246 247 248